Back to catalog

BREEZE-M DEB

LostHEO
NORAD 38634·DEBRIS·🇷🇺 Russia

Launched Mar 14, 2008 from Baikonur Cosmodrome

Loading…

Next Passes (next 24 hours)

TLE

StaleSource: Space-Track

Epoch: Jan 20, 2023, 01:29 UTC

1 38634U 08011CH  23020.06240994 -.00002943  00000-0 -14643+0 0  9992
2 38634  48.6702 157.0386 6426446 147.7014 140.7263  2.96752215127629

Track BREEZE-M DEB in real time with AllMySat

Download on the App Store